User: anonymous   Login
Location: Unspecified
(0.0000°N, 0.0000°E)
Time: 11:18:28
(UTC+00:00)
Language:

ARABSAT-6A - Orbit

View from above orbital plane
View from above orbital plane
View from above satellite
View from above satellite

Ground track
Ground track

The orbit data is extracted from the following two-line orbital elements,

1 44186U 19021A   19200.90425902  .00000146  00000-0  00000+0 0  9999
2 44186   0.0212  74.0704 0001250 130.5393  88.8339  1.00268374   914
Epoch (UTC): 19 July 2019 21:42:07
Eccentricity: 0.0001250
inclination: 0.0212°
perigee height: 35782 km
apogee height: 35792 km
right ascension of ascending node: 74.0704°
argument of perigee: 130.5393°
revolutions per day: 1.00268374
mean anomaly at epoch: 88.8339°
orbit number at epoch: 91

The dashed part of the orbit path shows where the satellite is in the earth's shadow,  

DLR